Flag for Canada Weather past 2 weeks in Creston, British Columbia, Canada

Now
83 °F

Pleasantly warm.


Feels Like: 81 °F
Forecast: 64 / 85 °F
Wind: 5 mph from Northwest

Location: Creston

Current Time: Jul 6, 2015 at 5:26:17 PM

Latest Report: Jul 6, 2015 at 4:00 PM


Visibility: N/A

Pressure: 29.98 "Hg (27.95 "Hg at 617m altitude)

Humidity: 28%

Dew point: 46 °F

Location of CrestonLocation

Historic Weather in Creston — Graph

°F

Creston temperature yesterday

Maximum temperature yesterday: 83 °F (at 5:00 PM)
Minimum temperature yesterday: 66 °F (at 5:00 AM)
Average temperature yesterday: 75 °F

Past Weeks' High & Low Weather Summary

 TemperatureHumidityPressure
High99 °F (Jun 28, 4:00 PM)90% (Jun 30, 6:00 AM)30.14 "Hg (Jun 30, 6:00 AM)
Low53 °F (Jun 22, 5:00 AM)16% (Jul 4, 4:00 PM)29.65 "Hg (Jul 4, 6:00 PM)
Average75 °F44%29.96 "Hg
* Reported Jun 21 4:00 PM — Jul 6 4:00 PM, Creston, Weather by CustomWeather, © 2015

Note: Actual official high and low records may vary slightly from our data, if they occured in-between our weather recording intervals... More about our weather records

Advertising

Creston weather history for previous 24 hours

 ConditionsComfort  
Time TempWeatherWind HumidityBarometerVisibility
4:00 PM
Mon, Jul 6
83 °FPleasantly warm.5 mph28%29.98 "HgN/A
3:00 PM83 °FPleasantly warm.1 mph25%29.99 "HgN/A
2:00 PM78 °FPleasantly warm.5 mph30%30.02 "HgN/A
1:00 PM78 °FPleasantly warm.2 mph31%30.04 "HgN/A
12:00 PM76 °FMild.6 mph32%30.06 "HgN/A
11:00 AM74 °FMild.3 mph33%30.10 "HgN/A
10:00 AM71 °FMild.5 mph40%30.11 "HgN/A
9:00 AM68 °FMild.5 mph44%30.13 "HgN/A
8:00 AM65 °FMild.9 mph45%30.14 "HgN/A
7:00 AM63 °FMild.9 mph47%30.13 "HgN/A
6:00 AM62 °FRefreshingly cool.8 mph49%30.12 "HgN/A
5:00 AM62 °FRefreshingly cool.5 mph47%30.11 "HgN/A
4:00 AM62 °FMild.3 mph46%30.11 "HgN/A
3:00 AM64 °FMild.7 mph44%30.11 "HgN/A
2:00 AM65 °FMild.2 mph43%30.11 "HgN/A
1:00 AM67 °FMild.2 mph38%30.09 "HgN/A
12:00 AM68 °FMild.1 mph41%30.08 "HgN/A
11:00 PM
Sun, Jul 5
70 °FMild.6 mph37%30.06 "HgN/A
10:00 PM73 °FMild.2 mph28%30.03 "HgN/A
9:00 PM74 °FMild.5 mph30%30.01 "HgN/A
8:00 PM77 °FMild.5 mph29%29.99 "HgN/A
7:00 PM80 °FPleasantly warm.6 mph27%29.98 "HgN/A
6:00 PM83 °FPleasantly warm.2 mph20%29.97 "HgN/A
5:00 PM83 °FPleasantly warm.9 mph25%29.97 "HgN/A
Weather by CustomWeather, © 2015

See weather overviewHow to use our weather pages